| time (UTC) | temp F | wind direction | speed knots | gust knots | rain 1hr in | rain 24hr in | rain mn in | humidity % | barometer mb |
| 20260905213006 | 86 | 188 | 1.7 | 4.3 | 0.00 | 0.10 | 0.00 | 48 | 1010.4 |
| 20260905211529 | 86 | 236 | 1.7 | 4.3 | 0.00 | 0.10 | 0.00 | 48 | 1010.4 |
| 20260905210019 | 85 | 239 | 0.9 | 4.3 | 0.00 | 0.10 | 0.00 | 48 | 1010.1 |
| 20260905204507 | 86 | 243 | 0.9 | 4.3 | 0.00 | 0.10 | 0.00 | 49 | 1010.5 |
| 20260905203018 | 85 | 233 | 2.6 | 4.3 | 0.00 | 0.10 | 0.00 | 50 | 1010.4 |
| 20260905201514 | 86 | 215 | 2.6 | 6.1 | 0.00 | 0.10 | 0.00 | 48 | 1010.2 |
| 20260905200009 | 85 | 202 | 1.7 | 7.0 | 0.00 | 0.10 | 0.00 | 50 | 1010.1 |
| 20260905194518 | 85 | 159 | 3.5 | 6.1 | 0.00 | 0.10 | 0.00 | 49 | 1010.1 |
| 20260905193025 | 84 | 126 | 1.7 | 5.2 | 0.00 | 0.10 | 0.00 | 54 | 1010.1 |
| 20260905191520 | 83 | 111 | 1.7 | 5.2 | 0.00 | 0.10 | 0.00 | 52 | 1009.9 |
| 20260905190026 | 82 | 120 | 2.6 | 6.1 | 0.00 | 0.10 | 0.00 | 53 | 1009.5 |
| 20260905184514 | 80 | 86 | 0.0 | 2.6 | 0.00 | 0.10 | 0.00 | 56 | 1010.0 |
| 20260905183031 | 80 | 157 | 2.6 | 4.3 | 0.00 | 0.10 | 0.00 | 58 | 1010.3 |
| 20260905181503 | 80 | 213 | 0.0 | 4.3 | 0.00 | 0.10 | 0.00 | 55 | 1010.7 |
| 20260905180006 | 82 | 186 | 2.6 | 7.0 | 0.00 | 0.10 | 0.00 | 53 | 1011.6 |
| 20260905174504 | 84 | 290 | 2.6 | 8.7 | 0.00 | 0.10 | 0.00 | 50 | 1011.6 |
| 20260905173004 | 85 | 309 | 2.6 | 7.0 | 0.00 | 0.10 | 0.00 | 51 | 1012.0 |
| 20260905171503 | 86 | 314 | 3.5 | 10.4 | 0.00 | 0.10 | 0.00 | 49 | 1012.2 |
| 20260905170006 | 88 | 46 | 6.1 | 12.2 | 0.00 | 0.10 | 0.00 | 48 | 1012.2 |
| 20260905164508 | 89 | 30 | 3.5 | 8.7 | 0.00 | 0.10 | 0.00 | 45 | 1012.3 |
| 20260905163004 | 91 | 273 | 4.3 | 8.7 | 0.00 | 0.10 | 0.00 | 42 | 1012.1 |
| 20260905161503 | 90 | 340 | 4.3 | 11.3 | 0.00 | 0.10 | 0.00 | 42 | 1012.3 |
| 20260905160003 | 91 | 341 | 4.3 | 10.4 | 0.00 | 0.10 | 0.00 | 43 | 1012.5 |
| 20260905154505 | 90 | 333 | 0.9 | 7.0 | 0.00 | 0.10 | 0.00 | 46 | 1012.4 |
| 20260905153012 | 89 | 57 | 1.7 | 4.3 | 0.00 | 0.10 | 0.00 | 48 | 1012.7 |
| 20260905151513 | 88 | 68 | 0.9 | 2.6 | 0.00 | 0.10 | 0.00 | 52 | 1012.7 |
| 20260905150010 | 87 | 68 | 0.9 | 3.5 | 0.00 | 0.10 | 0.00 | 53 | 1012.7 |
| 20260905144505 | 87 | 70 | 2.6 | 5.2 | 0.00 | 0.10 | 0.00 | 54 | 1012.7 |
| 20260905143005 | 86 | 101 | 2.6 | 6.1 | 0.00 | 0.10 | 0.00 | 56 | 1012.8 |
| 20260905141524 | 84 | 173 | 1.7 | 5.2 | 0.00 | 0.10 | 0.00 | 57 | 1012.6 |
| 20260905140018 | 83 | 175 | 0.9 | 3.5 | 0.00 | 0.10 | 0.00 | 59 | 1012.4 |
| 20260905134509 | 82 | 175 | 1.7 | 3.5 | 0.00 | 0.10 | 0.00 | 61 | 1012.3 |
| 20260905133006 | 80 | 197 | 0.0 | 2.6 | 0.00 | 0.10 | 0.00 | 65 | 1012.4 |
| 20260905131509 | 78 | 197 | 0.0 | 1.7 | 0.00 | 0.10 | 0.00 | 68 | 1012.3 |
| 20260905130012 | 76 | 197 | 0.9 | 1.7 | 0.00 | 0.10 | 0.00 | 70 | 1012.4 |
| 20260905124535 | 74 | 85 | 0.0 | 1.7 | 0.00 | 0.10 | 0.00 | 72 | 1012.5 |
| 20260905123007 | 73 | 14 | 0.0 | 1.7 | 0.00 | 0.10 | 0.00 | 73 | 1012.5 |
| 20260905121506 | 71 | 14 | 0.0 | 1.7 | 0.00 | 0.10 | 0.00 | 74 | 1012.5 |
| 20260905120012 | 69 | 24 | 0.0 | 0.0 | 0.00 | 0.10 | 0.00 | 74 | 1012.3 |
| 20260905114510 | 69 | 24 | 0.0 | 1.7 | 0.00 | 0.10 | 0.00 | 73 | 1012.0 |
| 20260905113024 | 69 | 24 | 0.0 | 4.3 | 0.00 | 0.10 | 0.00 | 74 | 1012.0 |
| 20260905111527 | 68 | 25 | 0.0 | 2.6 | 0.00 | 0.10 | 0.00 | 74 | 1012.1 |